Weather Service Report


984 
ASUS44 KOUN 240400
RWROK 

WEATHER ROUNDUP FOR OKLAHOMA
NATIONAL WEATHER SERVICE NORMAN OK
1100 PM CDT TUE MAY 23 2017

NOTE: "FAIR" INDICATES FEW OR NO CLOUDS BELOW 12,000 FEET WITH NO
      SIGNIFICANT WEATHER AND/OR OBSTRUCTIONS TO VISIBILITY.

OKZ001>007-009>012-014-015-017-240500-
NORTHWEST OKLAHOMA AND THE PANHANDLE
  
CITY           SKY/WX    TMP DP  RH WIND       PRES   REMARKS
GAGE           CLEAR     51  45  79 NW6       29.97S                  
GUYMON         CLEAR     53  41  63 N5        30.03R                  
$$

OKZ016-021>023-033>039-044-045-240500-
SOUTHWEST OKLAHOMA
  
CITY           SKY/WX    TMP DP  RH WIND       PRES   REMARKS
LAWTON/REGL    CLEAR     52  49  89 W5        29.92S                  
LAWTON/FT SILL CLEAR     58  46  63 NW3       29.91S                  
FREDERICK      CLEAR     58  46  64 NW5       29.91S                  
CLINTON        CLEAR     53  45  74 NW8       29.96R                  
HOBART         CLEAR     54  47  77 NW5       29.95R                  
$$

OKZ018>020-024>031-240500-
CENTRAL OKLAHOMA
  
CITY           SKY/WX    TMP DP  RH WIND       PRES   REMARKS
OKLAHOMA CITY  PTCLDY    58  45  62 N8        29.90R                  
OKC/WILEY POST CLEAR     56  47  71 NW3       29.90S                  
OKC/TINKER AFB CLEAR     57  46  64 N7        29.89S                  
STILLWATER     CLEAR     52  45  77 W5        29.88S                  
GUTHRIE        CLEAR     55  46  71 CALM      29.90R                  
$$

OKZ008-013-054>072-240500-
NORTHEAST OKLAHOMA
  
CITY           SKY/WX    TMP DP  RH WIND       PRES   REMARKS
TULSA          CLOUDY    57  47  69 NW9       29.83R                  
TULSA/JONES    CLOUDY    61  43  51 VRB6      29.85R                  
PONCA CITY     MOCLDY    55  45  68 VRB6      29.88S                  
BARTLESVILLE   MOCLDY    56  46  69 CALM      29.86S                  
MUSKOGEE       CLOUDY    58  51  78 N5        29.84R                  
$$

OKZ032-040>043-046>053-073>077-240500-
SOUTH CENTRAL/SOUTHEAST OKLAHOMA
  
CITY           SKY/WX    TMP DP  RH WIND       PRES   REMARKS
MCALESTER      PTCLDY    59  53  80 NW5       29.86R                  
$$

  

Return to Home page


Western Regional Climate Center, wrcc@dri.edu